Regional Weather Roundup
Issued by NWS Wakefield, VA

Home | Current Version | Previous Version | Text Only | Print | Product List | Glossary On
Versions: 1 2 3 4 5 6 7 8 9 10 11 12 13 14 15 16 17 18 19 20 21 22 23 24 25 26 27 28 29 30 31 32 33 34 35 36 37 38 39 40 41 42 43 44 45 46 47 48 49 50
000
ASUS41 KAKQ 301510
RWRAKQ

REGIONAL WEATHER ROUNDUP
NATIONAL WEATHER SERVICE WAKEFIELD VA
1100 AM EDT TUE SEP 30 2014

Note: "fair" indicates few or no clouds below 12,000 feet with no
significant weather and/or obstructions to visibility. * = Denotes
station may not report precipitation (e.g., rain,snow,etc.),
thunder or fog.

VAZ042-051-052>054-056-301600-
NORTHERN VIRGINIA

CITY           SKY/WX    TMP DP  RH WIND       PRES   REMARKS
WASH NATIONAL  CLOUDY    70  61  73 S6        29.94S
DULLES         CLOUDY    64  61  90 CALM      29.94F
FORT BELVOIR   CLOUDY    64  63  94 CALM      29.94F
QUANTICO       CLOUDY    66  62  87 S3        29.95S
FREDERICKSBRG* CLOUDY    67  64  91 NE3       29.93S
STAFFORD*      CLOUDY    66  66 100 CALM      29.98S
WARRENTON      CLOUDY    66  66  99 CALM      29.94S
CULPEPER*      CLOUDY    66  63  88 CALM      29.95S
MANASSAS*      CLOUDY    64  64 100 CALM      29.95R
LEESBURG*      CLOUDY    66  64  94 S6        29.95S
WINCHESTER     SUNNY     72  59  64 S3        29.93S
FRONT ROYAL*   SUNNY     72  61  68 CALM      29.92S
LURAY*         SUNNY     73  63  68 SW3       29.93F
$$

VAZ048-049-060>072-079>083-301600-
CENTRAL AND SOUTH CENTRAL VIRGINIA...AND NORTH CENTRAL NORTH CAROLINA

CITY           SKY/WX    TMP DP  RH WIND       PRES   REMARKS
RICHMOND       CLOUDY    67  61  81 CALM      29.93S
CHESTERFIELD*  CLOUDY    66  55  68 W3        29.95F
PETERSBURG*    CLOUDY    68  61  80 CALM      29.94S
HANOVER        CLOUDY    68  62  81 NW3       29.95S
TAPPAHANNOCK*  CLOUDY    67  61  81 CALM      29.94S
CHARLOTTSVILLE CLOUDY    64  62  93 NE3       29.94S FOG
ORANGE*        CLOUDY    64  61  88 CALM      29.95F
LOUISA*        CLOUDY    64  63  94 CALM      29.93S
FARMVILLE*     CLOUDY    66  64  94 CALM      29.93S
CREWE*         CLOUDY    66  61  83 S3        29.94S
FORT PICKETT*  CLOUDY    66  62  88 CALM      29.94S
LUNENBURG*     CLOUDY    64  64  97 CALM      29.94S
SOUTH HILL*    CLOUDY    66  66 100 CALM      29.99S
LAWRENCEVILLE* CLOUDY    65  63  93 CALM      29.93F
ROANOKE RAPIDS CLOUDY    63  63 100 CALM      29.94S
RALEIGH        CLOUDY    66  61  84 CALM      29.95S HAZE
$$

VAZ088>098-301600-
SOUTHEAST VIRGINIA

CITY           SKY/WX    TMP DP  RH WIND       PRES   REMARKS
NORFOLK        MOSUNNY   71  63  75 NE7       29.92S
VIRGINIA BEACH MOSUNNY   74  61  63 N6        29.91F
NORFOLK NAVAL  MOSUNNY   74  63  68 N7        29.93S
WEST POINT*    CLOUDY    68  64  85 CALM      29.94F
NEWPORT NEWS   PTSUNNY   73  64  73 CALM      29.93S
LANGLEY AFB    SUNNY     71  66  83 VRB3      29.93S
FORT EUSTIS    PTSUNNY   68  68 100 E3        29.91F
WILLIAMSBURG*  SUNNY     70  66  88 CALM      29.94S
HR EXEC AP*    PTSUNNY   73  64  73 NE3       29.94S
FRANKLIN*      CLOUDY    64 N/A N/A CALM      29.94R
WAKEFIELD      CLOUDY    68  63  84 CALM      29.93F
$$

VAZ020-022-025-037-045-301600-
WEST CENTRAL AND SOUTHWEST VIRGINIA

CITY           SKY/WX    TMP DP  RH WIND       PRES   REMARKS
STAUNTON*      SUNNY     69  60  74 CALM      29.96F
HOT SPRINGS VA SUNNY     62  43  49 W6        30.05S
LYNCHBURG      SUNNY     69  64  84 VRB3      29.95F
DANVILLE       CLOUDY    67  61  81 CALM      29.95S
SOUTH BOSTON*  NOT AVBL
MARTINSVILLE   SUNNY     71  63  77 CALM      29.98S
ROANOKE        MOSUNNY   68  59  73 SW5       29.97F
BLACKSBURG     CLOUDY    63  63 100 CALM      30.02S FOG
DUBLIN*        CLOUDY    62  62 100 CALM      30.01F
MARION*        SUNNY     67  60  77 SW8       30.04F
HILLSVILLE*    SUNNY     65  59  82 N7        30.02F
RICHLANDS*     SUNNY     68  61  77 W3        30.03S
WISE*          MOSUNNY   70  61  73 W6        30.04S
ABINGDON*      MOSUNNY   69  62  78 W7        30.02S
$$

MDZ021>025-VAZ099-100-301600-
SOUTHERN MARYLAND AND THE DELMARVA PENINSULA

CITY           SKY/WX    TMP DP  RH WIND       PRES   REMARKS
PATUXENT RIVER PTSUNNY   69  63  81 CALM      29.93S
BAY BRIDGE APT   N/A     68  63  83 W5        29.93F
LEONARDTOWN    CLOUDY    64  59  82 CALM      29.95S
DOVER          SUNNY     72  59  63 E6        29.92S
GEORGETOWN     MOSUNNY   71  60  68 S12       29.94F
EASTON         MOSUNNY   73  64  73 SE3       29.96F
CAMBRIDGE      MOSUNNY   72  61  68 E3        29.92F
SALISBURY      SUNNY     73  61  65 VRB3      29.93F
OCEAN CITY     MOSUNNY   72  60  66 NE8       29.93F
WALLOPS ISLAND CLOUDY    71  62  73 NE5       29.93F
ACCOMACK*      PTSUNNY   70  61  73 NE5       29.92F
$$

NCZ012>017-030>032-301600-
EASTERN NORTH CAROLINA

CITY           SKY/WX    TMP DP  RH WIND       PRES   REMARKS
ELIZABETH CITY SUNNY     74  65  73 NE6       29.92S
AHOSKIE*       CLOUDY    64  62  96 N3        29.94S
EDENTON*       SUNNY     73  63  72 NE5       29.92S
CURRITUCK*     PTSUNNY   73  64  73 N6        29.92F
KILL DEVIL HLS MOSUNNY   74  64  72 NE7       29.90S
MANTEO         MOSUNNY   73  62  68 NE10      29.91S
CAPE HATTERAS  CLOUDY    71  65  81 NE8G16    29.88S
TARBORO*       CLOUDY    65  64  97 CALM      29.94F
GOLDSBORO      MOSUNNY   72  66  81 CALM      29.91S
WASHINGTON     SUNNY     72  63  73 N3        29.92F
GREENVILLE     SUNNY     72  63  73 N3        29.94F
NEW BERN       MOSUNNY   74  65  73 N6        29.92F
WILMINGTON     SUNNY     74  64  71 N10       29.90F
$$

VAZ048-301600-
ELSEWHERE

CITY           SKY/WX    TMP DP  RH WIND       PRES   REMARKS
HARRISBURG PA  CLOUDY    64  62  93 CALM      29.94S FOG
BALTIMORE      PTSUNNY   68  61  78 S5        29.93S
ANNAPOLIS        N/A     70  63  78 E5        29.93S
ANDREWS AFB    CLOUDY    65  64  99 SW2       29.94S
WILMINGTON DE  SUNNY     70  58  65 SE6       29.94F
PHILADELPHIA   MOSUNNY   74  56  53 E5        29.94F
WILDWOOD NJ*   SUNNY     70  54  56 E7        29.95S
ATLANTIC CITY  CLOUDY    71  56  58 E7        29.95S
HENDERSON NC   CLOUDY    64  61  91 CALM      29.95S FOG
GREENSBORO     CLOUDY    64  63  96 CALM      29.95S FOG
ROCKY MOUNT    CLOUDY    65  64  97 CALM      29.94S
FAYETTEVILLE   MOSUNNY   69  64  84 N7        29.93S
CHARLOTTE      MOSUNNY   68  62  81 W3        29.96F
$$

VAZ100-301600-
MARINE

STATION/POSITION TIME  TEMP    WIND        PRES    WAVE   SWELL
                       AIR SEA DIR/SP/G            HT/PER HT/PER
                 (UTC) (F)     (DEG/KT/KT) (MB)    (FT/S) (FT/S)
44066 TX TWR #4  1500   69 69   60/  8/  8 1013.4F   2/ 8   2/ 8
CAPE MAY NJ      1500   70 73   60/  5/  7 1013.3F
LEWES DE         1500   69 70  100/ 11/ 13 1013.3F
15NM E FENWICK I 1500   69 70              1013.2F   2/14
OCEAN-CITY-INLET 1500   71 71   70/  4/  8 1013.2F
WACHAPREAGUE VA  1500   70 72   30/  5/  7 1013.4F
THOMAS POINT MD  1500   67 71  230/  4/  5 1014.5F
GOOSES REEF MD   1500   67        CALM     1014.2S
COVE POINT MD    1500   67     100/  2/  3 1013.5S
SOLOMONS ISLAND  1500      72                N/A
BISHOPS HEAD MD  1500   69 71  110/  5/  6 1013.1S
PINEY POINT MD   1500          260/  3/  4   N/A
POTOMAC MD       1500   67     280/  4/  6 1013.1F
CAMBRIDGE MD     1500   69 71   20/  3/  4 1013.1F
LEWISETTA VA     1500   66 71  160/  2/  3 1013.3F
RAPPAHANNOCK LGT 1500           20/  5/  6 1013.9R
STINGRAY PT      1500   68      20/  2/  4   N/A
YORK RVR RNG VA  1500   67     360/  5/  6 1012.9S
YORKTOWN VA      1500   67 72   70/  4/  5 1013.1S
JAMESTOWN VA     1500   66     320/  4/  6   N/A
DOMINION TERM VA 1500   67     300/  6/  7 1013.4R
KIPTOPEKE VA     1500      76  350/  2/  5   N/A
CHES BAY BRIDGE  1500   69 72   20/  4/  6 1012.8F
CHESAPEAKE LGHT  1400   70      20/  8/  9 1013.9R
WILLOUBY STN VA  1500   70      70/  3/  4 1012.1S
S CRANEY ISL VA  1500          310/  4/  6 1013.0S
CAPE HENRY BUOY  1500      73                N/A     2/14   2/14
1ST LANDING BUOY 1500   70      10/  4/  6 1013.0S
CAPE CHARLES BUO 1500      72                N/A     2/ 7   2/ 7
OFFSHORE WE BUOY 1500      73                N/A     2/14   2/14
64NM E OF VA BCH 1500   70 71   40/  6/  6 1012.3R   2/ 8   2/ 8
DUCK PIER NC     1500   70 72   30/ 10/ 11 1012.1F
44100 DUCK FRF   1500      72                N/A     3/14   2/14
44056 DUCK FRF   1500                        N/A     2/ 8
OREGON INLET NC  1500   72 73   20/  9/ 13 1012.4F
HATTERAS NC      1500   71 73   30/ 11/ 15 1012.4F
DIAMOND SHLS NC  1400   73     360/ 16/ 19 1011.4F   4/ 6   2/ 8
CAPE LOOKOUT NC  1400   70     360/ 10/ 12 1012.0R
$$


USA.gov is the U.S. government's official web portal to all federal, state and local government web resources and services.